STARLINK-37434, 69252

Orbit data source: Space-Track

STARLINK-37434, 69252 is a payload satellite owned by SpaceX/Seattle (US) in LEO that was launched on Fri, 29 May 2026 UTC via an FALCON 9 launch vehicle from the Air Force Eastern Test Range (AFETR). Payload-class satellites include a variety of spacecraft equipped with specific instruments for various scientific and technological missions. These include communications satellites like Starlink; space stations such as the ISS; scientific satellites like the Hubble; Earth observation satellites from companies like Planet Labs, Umbra, and HawkEye 360; GPS; miniature CubeSats for education and research; and military/defense satellites.

Loading next visibility...
Identifier
69252, 2026-117Q
Orbit
LEO
Country
Flag of USUS
Related business
Manufacturer
SpaceX/Seattle
Mission
Operational spacecraft
Bus & Motor
STARLINK V2MO, Unknown motor
Mass
575 kg wet, ~530 kg dry
Launch date (UTC)
2026-05-29 (2 weeks ago)
Launch vehicle
FALCON 9
Launch site
Air Force Eastern Test Range (AFETR)
Object type
Payload
Rocket body
Debris
Shape & HBR
Unknown
Radar Cross Section
RCS unknown

Expand to show TLE details & history
Last TLE update: 6 days ago

TLE from 6 days ago
0 STARLINK-37434
1 69252U 26117Q   26155.25004630 -.01923214  11732-2 -26990-2 0  9998
2 69252  53.1582 308.7264 0000369  58.4129 328.5973 16.05269835  2090
Epoch: 2026-06-04T06:00Z
TLE epoch observation values (Epoch: 2026-06-04T06:00:04.000Z)
Latitude
21.36216°
Longitude
-17.04643°
Altitude
260.245 km
Speed
7.754 km/s
True Right ascension
21h 42m 40s
True Declination
21° 14' 13"
Sunlit
Object was in daylight at epoch
Visualization orbit readout
Latitude
Unknown
Longitude
Unknown
Altitude
Unknown
Speed
Unknown
Apparent Right ascension
Unknown
Apparent Declination
Unknown
Sunlit
N/A
Visualization observer readout
Local Sidereal Time
12:42:11
Azimuth
Unknown
Elevation
Unknown
Doppler factor
Unknown
Orbital elements
Apogee altitude
260.361 km
Perigee altitude
259.871 km
Semi-major axis
6,638.253 km
Eccentricity
0.00004
Inclination
53.1582°
RAAN
308.7264°
Arg. of periapsis
58.4129°
True anomaly
328.5951°
Mean anomaly
328.5973°
Eccentric anomaly
328.5962°
Mean motion
4.01294 °/min
Orbital period
89.71 mins
BSTAR
-0.002699
Loading maneuver chart data...
Computing Atmospheric mass density...
Loading historical data...
Loading historical data...
Loading historical data...
Loading historical data...
Loading historical data...
Loading historical data...
Loading historical data...

Documentation

Showing up to 5 results
|